When you browse on this site, cookies collect data to enhance your experience and personalize the content and advertising you see.
Visit our Privacy Policy to learn more. By continuing to use the site, you agree to this use of cookies and data.
  • In Österreich
  • Länderverzeichnis
  • Für 7 Tage
  • Wassertemperatur
  • Wetterkarte
  • News
  • Widgets
  • user-avatar
    Anmelden

    Stündliche Wetter Prutz

    Heute, 26 Februar, Mittwoch

    Zeit Temperatur Niederschläge Wind Luftdruck Luftfeuchtigkeit
    00:00 -2°C° 0.6 mm 2 m/S 620 mmHg 94%
    01:00 -4°C° 0 mm 3 m/S 620 mmHg 92%
    02:00 -3°C° 0.9 mm 2 m/S 619 mmHg 93%
    03:00 -4°C° 0.9 mm 2 m/S 618 mmHg 95%
    04:00 -2°C° 0.9 mm 1 m/S 618 mmHg 96%
    05:00 -5°C° 0.9 mm 2 m/S 618 mmHg 95%
    06:00 -5°C° 0.9 mm 2 m/S 618 mmHg 95%
    07:00 -6°C° 0 mm 2 m/S 618 mmHg 93%
    08:00 -5°C° 0.2 mm 2 m/S 618 mmHg 83%
    09:00 -5°C° 0.2 mm 2 m/S 618 mmHg 73%
    10:00 -4°C° 0.2 mm 2 m/S 618 mmHg 62%
    11:00 -5°C° 0.2 mm 3 m/S 618 mmHg 63%
    12:00 -5°C° 0.2 mm 4 m/S 618 mmHg 64%
    13:00 -6°C° 0.2 mm 5 m/S 618 mmHg 65%
    14:00 -7°C° 0.2 mm 4 m/S 618 mmHg 67%
    15:00 -7°C° 0.2 mm 3 m/S 618 mmHg 69%
    16:00 -7°C° 0.2 mm 3 m/S 618 mmHg 72%
    17:00 -8°C° 0.2 mm 2 m/S 619 mmHg 79%
    18:00 -9°C° 0.2 mm 2 m/S 619 mmHg 87%
    19:00 -12°C° 0.2 mm 2 m/S 619 mmHg 94%
    20:00 -10°C° 0.7 mm 2 m/S 620 mmHg 94%
    21:00 -10°C° 0.7 mm 2 m/S 621 mmHg 95%
    22:00 -9°C° 0.7 mm 2 m/S 622 mmHg 95%
    23:00 -8°C° 0.3 mm 1 m/S 622 mmHg 95%

    Morgen, 27 Februar, Donnerstag

    Zeit Temperatur Niederschläge Wind Luftdruck Luftfeuchtigkeit
    00:00 -9°C° 0.3 mm 1 m/S 623 mmHg 95%
    01:00 -9°C° 0.3 mm 1 m/S 623 mmHg 95%
    02:00 -9°C° 0.3 mm 1 m/S 623 mmHg 95%
    03:00 -9°C° 0.3 mm 1 m/S 623 mmHg 95%
    04:00 -9°C° 0.3 mm 1 m/S 623 mmHg 95%
    05:00 -10°C° 0.1 mm 2 m/S 623 mmHg 94%
    06:00 -12°C° 0.1 mm 2 m/S 624 mmHg 93%
    07:00 -12°C° 0.1 mm 2 m/S 624 mmHg 92%
    08:00 -10°C° 0 mm 2 m/S 624 mmHg 86%
    09:00 -8°C° 0 mm 2 m/S 624 mmHg 79%
    10:00 -7°C° 0 mm 2 m/S 624 mmHg 72%
    11:00 -5°C° 0 mm 2 m/S 624 mmHg 69%
    12:00 -5°C° 0 mm 3 m/S 624 mmHg 65%
    13:00 -4°C° 0 mm 3 m/S 623 mmHg 62%
    14:00 -5°C° 0.2 mm 4 m/S 622 mmHg 69%
    15:00 -6°C° 0.2 mm 5 m/S 621 mmHg 75%
    16:00 -7°C° 0.2 mm 5 m/S 620 mmHg 82%
    17:00 -7°C° 0.7 mm 5 m/S 620 mmHg 84%
    18:00 -8°C° 0.7 mm 5 m/S 620 mmHg 86%
    19:00 -8°C° 0.7 mm 5 m/S 619 mmHg 88%
    20:00 -8°C° 0.3 mm 5 m/S 620 mmHg 89%
    21:00 -8°C° 0.3 mm 4 m/S 620 mmHg 90%
    22:00 -8°C° 0.3 mm 4 m/S 620 mmHg 90%
    23:00 -8°C° 0.8 mm 4 m/S 621 mmHg 92%

    übermorgen, 28 Februar, Freitag

    Zeit Temperatur Niederschläge Wind Luftdruck Luftfeuchtigkeit
    00:00 -8°C° 0.8 mm 4 m/S 622 mmHg 93%
    01:00 -7°C° 0.8 mm 3 m/S 623 mmHg 95%
    02:00 -8°C° 0.6 mm 3 m/S 623 mmHg 95%
    03:00 -9°C° 0.6 mm 3 m/S 624 mmHg 95%
    04:00 -9°C° 0.6 mm 3 m/S 624 mmHg 95%
    05:00 -10°C° 0.4 mm 3 m/S 625 mmHg 95%
    06:00 -10°C° 0.4 mm 3 m/S 626 mmHg 95%
    07:00 -9°C° 0.4 mm 2 m/S 626 mmHg 95%
    08:00 -8°C° 0.1 mm 2 m/S 627 mmHg 90%
    09:00 -7°C° 0.1 mm 2 m/S 628 mmHg 86%
    10:00 -6°C° 0.1 mm 2 m/S 629 mmHg 82%
    11:00 -5°C° 0 mm 2 m/S 629 mmHg 74%
    12:00 -4°C° 0 mm 2 m/S 630 mmHg 67%
    13:00 -1°C° 0 mm 1 m/S 630 mmHg 59%
    14:00 -1°C° 0 mm 1 m/S 630 mmHg 60%
    15:00 0°C° 0 mm 1 m/S 630 mmHg 60%
    16:00 +1°C° 0 mm 1 m/S 629 mmHg 60%
    17:00 0°C° 0 mm 1 m/S 629 mmHg 60%
    18:00 -3°C° 0 mm 2 m/S 629 mmHg 60%
    19:00 -4°C° 0 mm 2 m/S 629 mmHg 60%
    20:00 -4°C° 0 mm 2 m/S 629 mmHg 61%
    21:00 -4°C° 0 mm 2 m/S 629 mmHg 63%
    22:00 -4°C° 0 mm 2 m/S 629 mmHg 64%
    23:00 -4°C° 0 mm 2 m/S 629 mmHg 65%

    29 Februar, Samstag

    Zeit Temperatur Niederschläge Wind Luftdruck Luftfeuchtigkeit
    00:00 -4°C° 0 mm 2 m/S 629 mmHg 65%
    01:00 -4°C° 0 mm 2 m/S 629 mmHg 65%
    02:00 -4°C° 0 mm 2 m/S 628 mmHg 65%
    03:00 -4°C° 0 mm 2 m/S 628 mmHg 65%
    04:00 -4°C° 0 mm 2 m/S 627 mmHg 65%
    05:00 -4°C° 0 mm 2 m/S 627 mmHg 65%
    06:00 -4°C° 0 mm 3 m/S 627 mmHg 66%
    07:00 -4°C° 0 mm 3 m/S 627 mmHg 67%
    08:00 -2°C° 0 mm 3 m/S 626 mmHg 70%
    09:00 -1°C° 0 mm 3 m/S 626 mmHg 73%
    10:00 +1°C° 0 mm 3 m/S 626 mmHg 77%
    11:00 0°C° 0 mm 4 m/S 626 mmHg 80%
    12:00 0°C° 0 mm 4 m/S 625 mmHg 84%
    13:00 +1°C° 0 mm 4 m/S 625 mmHg 87%
    14:00 0°C° 0 mm 4 m/S 624 mmHg 86%
    15:00 0°C° 0 mm 4 m/S 624 mmHg 85%
    16:00 0°C° 0 mm 4 m/S 623 mmHg 84%
    17:00 -2°C° 0 mm 4 m/S 623 mmHg 84%
    18:00 -4°C° 0 mm 4 m/S 623 mmHg 84%
    19:00 -5°C° 0 mm 4 m/S 622 mmHg 84%
    20:00 -5°C° 0 mm 4 m/S 623 mmHg 85%
    21:00 -7°C° 0 mm 4 m/S 623 mmHg 85%
    22:00 -6°C° 0 mm 3 m/S 623 mmHg 86%
    23:00 -6°C° 0 mm 3 m/S 623 mmHg 86%

    1 März, Sonntag

    Zeit Temperatur Niederschläge Wind Luftdruck Luftfeuchtigkeit
    00:00 -6°C° 0 mm 3 m/S 623 mmHg 87%
    01:00 -5°C° 0 mm 2 m/S 623 mmHg 88%
    02:00 -5°C° 0.1 mm 2 m/S 622 mmHg 89%
    03:00 -5°C° 0.1 mm 2 m/S 622 mmHg 91%
    04:00 -3°C° 0.1 mm 1 m/S 622 mmHg 92%
    05:00 -2°C° 0.6 mm 1 m/S 622 mmHg 94%
    06:00 -2°C° 0.6 mm 1 m/S 622 mmHg 95%
    07:00 -2°C° 0.6 mm 0 m/S 622 mmHg 97%
    08:00 -1°C° 0.8 mm 1 m/S 622 mmHg 96%
    09:00 0°C° 0.8 mm 1 m/S 622 mmHg 96%
    10:00 +1°C° 0.8 mm 1 m/S 623 mmHg 96%
    11:00 -1°C° 0.8 mm 2 m/S 622 mmHg 96%
    12:00 -1°C° 0.8 mm 2 m/S 622 mmHg 96%
    13:00 -1°C° 0.8 mm 2 m/S 622 mmHg 96%
    14:00 -1°C° 0.5 mm 2 m/S 622 mmHg 94%
    15:00 -1°C° 0.5 mm 2 m/S 622 mmHg 92%
    16:00 -2°C° 0.5 mm 2 m/S 621 mmHg 90%
    17:00 -2°C° 0.1 mm 1 m/S 621 mmHg 91%
    18:00 -4°C° 0.1 mm 1 m/S 621 mmHg 92%
    19:00 -6°C° 0.1 mm 1 m/S 620 mmHg 94%
    20:00 -6°C° 0 mm 1 m/S 620 mmHg 91%
    21:00 -6°C° 0 mm 1 m/S 621 mmHg 88%
    22:00 -6°C° 0 mm 1 m/S 621 mmHg 85%
    23:00 -4°C° 0 mm 1 m/S 621 mmHg 84%

    2 März, Montag

    Zeit Temperatur Niederschläge Wind Luftdruck Luftfeuchtigkeit
    00:00 -6°C° 0 mm 2 m/S 621 mmHg 82%
    01:00 -6°C° 0 mm 2 m/S 621 mmHg 80%
    02:00 -6°C° 0 mm 2 m/S 621 mmHg 80%
    03:00 -7°C° 0 mm 2 m/S 621 mmHg 80%
    04:00 -6°C° 0 mm 1 m/S 622 mmHg 81%
    05:00 -7°C° 0 mm 2 m/S 622 mmHg 80%
    06:00 -8°C° 0 mm 2 m/S 622 mmHg 79%
    07:00 -8°C° 0 mm 2 m/S 622 mmHg 78%
    08:00 -6°C° 0 mm 2 m/S 622 mmHg 77%
    09:00 -3°C° 0 mm 2 m/S 623 mmHg 75%
    10:00 -1°C° 0 mm 2 m/S 623 mmHg 74%
    11:00 +1°C° 0 mm 2 m/S 623 mmHg 78%
    12:00 +1°C° 0 mm 2 m/S 623 mmHg 81%
    13:00 +2°C° 0 mm 2 m/S 623 mmHg 85%
    14:00 +2°C° 0 mm 2 m/S 622 mmHg 85%
    15:00 +2°C° 0 mm 2 m/S 621 mmHg 86%
    16:00 +2°C° 0 mm 2 m/S 621 mmHg 86%
    17:00 +1°C° 0 mm 2 m/S 620 mmHg 86%
    18:00 -1°C° 0 mm 2 m/S 620 mmHg 87%
    19:00 -3°C° 0 mm 2 m/S 619 mmHg 87%
    20:00 -3°C° 0 mm 2 m/S 619 mmHg 87%
    21:00 -3°C° 0 mm 2 m/S 619 mmHg 87%
    22:00 -3°C° 0 mm 2 m/S 619 mmHg 86%
    23:00 -3°C° 0 mm 2 m/S 619 mmHg 87%
    Mehr zeigen